ELECTRON R/B (53816 NORAD) Tracking and Keplerian Element Data

This shows tracking and keplerian element data for the satellite.

Feedback or suggestion? Click here.




ElementValue
Catalog53816
NameELECTRON R/B
Epoch Orbit179
Epoch Day270.22945938
Epoch Year2022
RAAN322.4578
Inclination97.631
Eccentricity0.0105871
Argument of Perigee191.5392
Mean Anonmoly248.3719
Mean Motion16.18166056
Decay Rate0.07202855
L11 53816U 22113B 22270.22945938 .07202855 21472-5 11050-2 0 9996
L22 53816 97.6310 322.4578 0105871 191.5392 248.3719 16.18166056 1795



Live tracking and technical data element details for ELECTRON R/B (NORAD 53816). ELECTRON R/B can be tracked NOW for your location showing map with azimuth and elevation plus other details from your city location.







IsCatalogInMostPopularTable: catalog: 53816, numindb: -1

Insert: records affected: 1


GetName: 53816 ELECTRON R/B

Hit Count: inserted at: Thu, 08 Dec 2022 09:24:12 GMT